{"data":{"norad_id":68545,"epoch":"2026-05-25T04:00:03.998880Z","epoch_age_seconds":57052,"freshness":"FRESH","line1":"1 68545U 26070D   26145.16671295  .00018889  00000+0  56949-3 0  9997","line2":"2 68545  53.1604   7.1381 0001370  83.1070  35.1501 15.34359914  5801","mean_motion":15.34359914,"eccentricity":0.000137,"inclination_deg":53.1604,"raan_deg":7.1381,"arg_perigee_deg":83.107,"mean_anomaly_deg":35.1501,"bstar":0.00056949,"rev_number":580,"period_min":93.850209905836,"perigee_km":461.88517540476,"apogee_km":463.75959827676,"semimajor_km":6840.9593868408,"source":"CELESTRAK","updated_at":"2026-05-25T13:38:21.959825Z"}}